SCP
0 0 0 0 0 0 0 0 0 0 0 1 1 1 2 2 2 3 4 4 5 5 5 5 5 4 3 3 2 2 2 2 1 1 1 1 1 1 1 1 1 1 1 1
0 0 0 0 0 0 0 0 0 0 0 1 1 2 2 2 2 3 4 5 6 7 6 6 5 4 3 3 2 2 2 2 1 1 1 1 1 1 1 1 1 1 1 1
0 0 0 0 0 0 0 0 0 0 1 1 1 1 2 2 2 3 4 5 7 9 9 8 6 5 4 3 2 2 2 2 1 1 1 1 1 1 1 1 1 1 1 2
0 0 0 0 0 0 0 0 0 0 1 1 1 1 1 2 3 3 4 6 8 10 10 8 6 5 4 3 2 2 2 2 2 1 1 2 2 1 1 1 1 1 1 1
0 0 0 0 0 0 0 0 0 0 0 0 1 1 1 2 3 4 5 7 9 11 10 7 5 4 4 3 3 2 2 2 2 1 1 2 2 2 1 1 1 1 1 1
0 0 0 0 0 0 0 0 0 0 0 0 0 1 1 2 3 4 6 8 9 10 8 6 4 3 3 3 3 2 2 2 2 2 2 2 1 1 1 1 1 1 1 1
0 0 0 0 0 0 0 0 0 0 0 0 0 0 1 1 3 4 6 7 8 7 6 5 4 4 4 4 4 3 3 2 2 2 2 2 2 2 2 2 2 1 1 1
0 0 0 0 0 0 0 0 0 0 0 0 0 0 1 2 4 5 5 5 5 5 5 5 5 5 5 4 4 3 3 3 3 3 3 2 2 2 2 2 2 2 2 1
0 0 0 0 0 0 0 0 0 0 0 0 0 1 2 3 5 5 4 4 4 4 4 4 5 5 5 4 3 4 3 3 3 3 3 3 3 2 3 3 3 3 2 2
0 0 0 0 0 0 0 0 0 0 0 0 0 1 1 3 5 5 4 3 3 3 4 4 4 5 4 3 3 4 4 4 4 3 3 3 3 3 3 3 4 3 3 3
0 0 0 0 0 0 0 0 0 0 0 0 0 1 1 3 4 4 4 3 3 3 3 4 4 4 4 3 3 4 5 4 4 4 3 3 3 3 3 3 4 4 4 4
0 0 0 0 0 0 0 0 0 0 0 0 0 1 1 3 4 4 4 4 4 5 5 5 4 4 4 4 4 4 5 5 5 4 4 3 3 3 3 3 4 4 4 4
0 0 0 0 0 0 0 0 0 0 0 0 0 1 2 3 3 4 4 5 6 7 6 6 5 5 5 5 4 4 4 5 5 5 4 4 3 3 3 4 3 3 3 3
0 0 0 0 0 0 0 0 0 0 0 0 0 1 2 3 3 4 5 6 7 7 7 6 5 5 5 4 4 4 4 5 6 6 5 4 3 3 3 4 4 3 2 2
0 0 0 0 0 0 0 0 0 0 0 0 0 1 2 4 4 5 6 7 7 7 6 5 5 4 4 4 4 4 4 5 6 6 5 5 4 3 3 3 4 3 2 2
0 0 0 0 0 0 0 0 0 0 0 0 1 2 4 6 6 5 5 6 6 6 5 5 4 4 4 4 4 4 5 5 5 6 6 5 5 4 4 3 4 4 4 3
0 0 0 0 0 0 0 0 0 0 0 1 1 3 5 7 7 5 5 5 6 6 5 5 5 5 5 5 5 5 6 6 6 6 6 6 5 5 4 4 3 4 5 5
0 0 0 0 0 0 0 0 1 1 1 2 2 4 6 8 7 7 6 6 7 7 6 5 5 5 6 7 7 7 8 8 7 6 5 5 5 4 4 4 3 4 5 5
0 0 0 0 0 0 0 1 1 2 2 3 4 5 8 10 9 8 7 7 9 9 7 6 6 6 7 8 9 9 10 9 8 7 6 5 5 4 4 4 3 4 4 5
0 0 0 0 0 0 1 2 2 2 3 4 5 7 10 11 9 8 7 8 11 13 10 7 7 8 8 9 10 11 10 9 9 8 7 6 5 4 4 4 4 4 5 5
0 0 0 0 0 0 1 2 2 3 4 5 6 7 9 9 8 7 7 8 11 13 10 8 8 9 8 9 11 11 11 10 10 10 8 7 6 5 4 4 5 5 5 6
0 0 0 0 0 0 1 2 2 3 5 6 7 7 8 8 8 8 8 7 8 8 8 8 9 9 10 10 11 12 12 12 12 11 10 9 7 4 4 4 4 5 5 6
0 0 0 1 1 1 2 2 3 4 5 6 7 7 8 8 8 9 9 8 8 8 8 9 11 12 12 12 12 13 13 13 13 12 12 10 6 3 3 3 4 5 5 6
1 1 1 1 2 2 3 3 3 3 5 6 7 7 7 8 9 10 11 11 12 12 11 13 16 17 16 14 12 13 13 12 12 12 12 9 5 2 2 3 4 5 5 5
1 1 2 2 3 3 3 3 3 3 4 5 6 7 7 8 10 12 13 15 17 17 17 20 23 24 21 17 14 12 11 11 11 12 10 7 3 2 2 2 3 4 4 4
1 1 2 2 3 3 3 3 2 3 4 5 5 6 7 8 10 13 14 17 20 21 22 26 28 28 24 19 14 10 9 10 12 12 9 5 3 2 1 1 1 2 3 3
Wind_Speed
3 3 3 6 5 6 4 2 3 4 4 5 7 9 12 11 10 10 9 10 11 11 10 11 11 10 9 8 8 8 7 5 4 2 2 2 2 2 1 2 4 4 4 3
4 4 9 5 4 3 3 3 2 1 3 6 7 6 8 11 13 13 13 12 12 10 9 10 10 10 10 9 8 8 8 6 5 3 3 2 2 2 2 2 3 4 4 3
5 8 4 3 4 2 2 5 5 4 1 3 7 2 3 5 6 8 11 12 12 15 15 13 12 10 10 10 9 8 8 6 5 4 2 1 1 1 0 1 1 2 3 3
6 7 4 3 4 3 3 4 6 6 5 1 4 3 5 5 5 8 9 11 13 13 13 13 13 12 12 11 9 8 8 7 5 4 3 3 2 2 2 2 2 1 1 2
6 3 4 4 6 4 4 2 4 5 5 2 1 4 6 3 6 9 11 12 13 13 14 15 14 14 11 10 8 7 7 6 5 4 4 3 2 2 1 1 1 1 1 1
6 4 4 6 4 4 2 5 6 6 5 0 4 5 6 7 12 11 11 12 13 13 14 13 11 10 9 9 8 7 7 6 6 5 4 4 3 2 1 1 1 1 1 1
4 6 4 1 0 3 5 7 5 5 4 5 4 3 9 9 12 14 14 14 13 13 13 12 12 11 10 10 9 8 7 6 6 6 5 4 4 3 3 3 3 2 1 1
3 6 5 3 6 5 3 10 8 5 4 4 2 3 7 6 8 9 10 11 12 12 12 13 13 12 12 11 10 8 7 6 7 6 5 4 4 3 2 3 2 3 2 2
6 7 6 3 4 8 4 4 9 8 2 1 3 3 5 2 5 5 8 9 10 12 12 12 12 11 10 10 10 9 7 6 6 6 5 3 3 3 3 2 2 2 1 1
6 3 5 3 1 1 7 7 6 6 4 1 3 2 4 4 5 6 7 9 9 10 10 10 10 9 8 8 8 8 8 8 7 6 5 4 3 3 2 2 1 1 1 1
5 4 5 1 5 6 3 3 6 5 6 7 2 6 7 9 8 8 8 9 10 11 11 10 9 9 9 8 8 8 8 7 6 6 5 4 3 2 2 2 1 1 2 2
5 6 4 7 6 8 7 7 8 6 3 5 4 8 6 6 6 8 9 8 8 8 8 9 9 9 8 8 8 7 7 7 6 5 4 4 3 3 3 2 2 2 2 2
6 7 2 5 6 1 3 4 6 7 6 5 5 7 3 4 6 7 9 9 8 8 8 8 8 8 8 8 8 8 8 7 6 5 5 4 4 4 3 2 2 2 3 3
8 6 8 10 8 4 3 3 4 7 5 4 7 6 3 5 7 6 8 9 9 9 8 8 7 7 7 7 7 7 7 7 7 6 6 5 4 4 3 3 3 3 3 3
7 5 4 4 4 3 3 5 5 5 8 8 8 9 10 10 10 9 8 9 10 9 9 9 8 7 7 7 7 7 7 7 7 7 6 5 4 4 4 4 4 4 4 4
5 5 3 1 1 0 2 5 5 5 5 5 5 5 6 6 7 7 9 10 11 10 9 9 9 9 9 9 8 8 7 7 7 7 6 5 5 5 4 4 4 4 4 3
3 6 5 1 2 3 4 6 5 4 4 7 7 7 5 7 10 11 11 10 10 11 10 10 10 9 9 8 8 8 8 7 7 7 6 5 5 5 4 5 5 4 3 3
7 6 5 2 2 4 10 5 4 4 3 4 6 7 9 9 7 6 9 10 9 9 10 9 8 8 8 7 7 7 7 7 7 6 6 5 5 5 4 5 5 4 3 3
7 8 5 4 3 4 7 4 3 4 2 3 8 8 7 8 7 2 3 7 10 10 9 9 9 8 8 8 8 8 8 7 7 6 6 5 6 6 5 5 4 4 4 4
6 7 7 5 4 6 8 6 2 6 2 3 8 11 9 8 5 5 5 5 6 7 7 7 7 7 8 8 9 9 8 7 7 7 6 5 6 6 6 5 4 4 4 4
4 4 5 4 3 7 7 5 3 5 8 4 8 10 9 6 7 7 7 6 7 8 7 7 8 7 8 9 9 9 8 7 6 6 6 5 5 5 5 4 4 4 4 4
6 4 4 4 3 8 5 2 4 7 4 5 6 7 7 5 6 6 6 6 6 7 8 9 8 7 7 8 9 9 8 7 7 7 7 6 5 5 5 5 4 4 5 5
5 7 7 7 8 7 3 2 2 3 4 4 5 5 9 8 7 6 6 5 5 7 7 7 8 7 6 7 8 9 8 8 8 7 6 5 5 4 4 5 5 4 4 4
2 1 4 1 2 2 2 3 4 3 3 4 6 7 8 8 8 7 6 5 4 5 6 6 8 8 7 6 7 8 8 9 9 8 7 6 5 4 4 3 3 4 4 4
2 1 2 1 1 4 4 4 3 4 5 5 5 5 6 7 7 7 6 6 5 5 5 6 8 8 7 7 7 7 8 9 9 8 6 6 5 5 4 3 2 2 3 4
1 2 3 4 5 3 3 2 2 4 3 4 5 4 4 6 6 5 5 5 6 6 6 6 7 7 7 7 7 7 8 9 9 7 6 5 5 4 4 4 3 5 3 2
Wind_Direction
341 62 249 236 206 197 178 153 180 205 180 131 132 146 166 175 174 174 178 176 172 172 167 164 163 159 158 162 164 167 167 174 165 156 159 163 196 213 214 207 206 202 197 187
16 271 242 238 254 232 182 168 222 330 155 138 136 153 177 180 185 181 180 181 176 164 161 165 165 163 165 169 170 167 171 175 178 178 176 181 186 208 208 216 215 209 201 195
210 245 246 241 258 253 235 182 186 177 101 78 104 54 212 195 185 187 181 178 175 174 173 173 173 173 171 174 175 172 173 175 183 180 159 155 85 6 342 248 232 230 209 198
245 251 251 239 245 193 244 217 166 152 121 205 139 169 252 202 199 196 187 180 181 179 175 176 177 178 180 181 176 168 170 173 178 170 163 167 175 201 220 212 213 241 206 195
253 232 207 219 232 196 218 209 145 148 136 87 53 136 260 197 207 210 196 189 186 180 178 181 184 184 181 176 173 171 169 174 175 173 173 174 192 210 216 189 197 218 226 222
249 264 208 211 234 200 147 43 37 58 78 83 224 155 244 210 205 201 196 192 187 182 181 182 182 174 173 171 171 171 175 180 178 177 176 181 193 196 171 187 208 234 241 239
298 292 271 192 148 349 82 80 36 9 20 248 238 162 236 224 198 191 187 190 187 182 179 178 178 177 176 174 175 177 178 184 182 181 187 189 190 180 183 193 198 214 229 234
197 270 255 199 170 175 152 134 152 181 208 273 327 219 254 226 187 179 179 181 177 177 181 182 183 181 178 174 173 174 180 187 183 185 194 187 181 181 196 199 195 206 214 219
178 243 272 224 175 150 145 164 165 139 159 69 292 296 328 83 133 156 161 159 171 177 178 179 178 175 171 166 169 173 178 185 182 185 183 184 182 179 188 195 185 186 194 178
165 220 268 246 94 152 159 154 95 110 138 207 300 270 223 204 172 174 166 163 169 172 172 172 173 171 167 162 159 157 175 180 176 179 181 180 183 188 190 174 172 151 132 103
160 172 285 318 180 193 153 125 115 123 147 147 204 266 226 198 182 169 172 167 168 168 168 163 161 163 157 150 151 154 163 164 168 171 168 165 165 170 157 134 123 114 106 107
167 137 224 249 242 183 167 173 145 147 204 152 156 261 262 178 168 158 161 162 159 155 154 151 152 150 149 150 151 154 159 161 164 163 154 154 142 135 131 123 117 113 108 105
150 125 122 331 331 324 168 167 152 137 127 145 156 252 291 121 125 143 149 150 146 143 139 139 141 144 150 154 157 160 162 159 155 150 144 141 134 131 135 136 127 123 113 98
127 123 159 187 207 213 215 226 164 131 151 189 200 212 227 160 145 144 142 143 142 143 143 141 143 148 151 156 157 156 158 155 151 148 145 144 145 142 139 131 124 120 111 103
114 139 171 193 203 186 202 228 214 180 180 180 211 198 208 189 171 158 144 140 138 142 145 147 149 151 150 153 158 156 154 153 150 146 147 151 148 136 124 120 117 111 106 102
100 135 127 337 352 194 267 244 225 211 190 182 178 222 215 174 144 141 144 146 151 154 156 156 155 156 160 163 161 155 151 151 147 147 152 149 138 131 128 125 118 108 99 90
104 117 115 243 318 44 267 232 212 216 206 167 187 213 167 152 160 162 160 159 160 162 161 162 165 167 166 165 159 156 152 147 148 150 151 149 148 143 141 132 122 118 115 104
127 112 120 123 77 217 242 241 188 182 215 176 165 165 163 166 166 162 159 157 160 162 158 162 165 163 160 155 150 146 140 146 151 154 156 156 150 147 144 138 136 135 122 112
130 126 114 118 151 268 288 274 181 162 246 167 144 142 135 126 94 74 181 166 168 166 164 167 165 161 154 152 150 142 145 148 150 153 156 154 148 146 144 143 140 134 121 106
84 103 112 122 148 216 247 268 194 113 233 215 143 147 147 124 128 211 203 171 151 147 148 154 149 144 151 155 149 146 151 153 159 160 157 149 146 147 148 147 139 131 125 120
70 71 117 138 181 253 254 283 91 141 219 210 154 153 151 158 181 185 170 158 155 145 144 150 148 152 159 154 147 150 154 165 162 148 141 138 140 142 142 135 134 132 126 117
148 141 164 143 175 250 285 10 157 203 200 160 148 146 142 144 136 141 149 153 151 147 151 153 151 152 150 151 151 155 163 161 143 138 137 138 140 139 132 127 127 130 133 126
161 171 177 181 207 235 258 179 198 149 134 138 138 138 134 131 136 141 145 147 152 152 153 151 148 146 149 157 157 160 162 148 141 139 140 141 135 126 131 136 140 134 133 134
311 108 120 154 267 289 19 52 45 90 124 139 137 134 136 140 141 134 136 137 147 150 149 148 145 148 155 156 154 158 152 148 145 147 147 144 138 131 125 131 141 145 151 150
257 56 97 133 290 6 5 31 53 72 90 96 100 116 134 133 138 141 146 150 156 155 155 153 154 155 158 152 150 152 151 149 148 151 151 148 144 141 132 119 115 152 169 177
274 154 151 206 218 178 247 291 81 93 104 115 105 88 114 129 137 142 152 162 160 158 151 149 149 149 150 148 151 154 154 154 153 157 159 158 153 149 143 134 96 46 69 129